This is the latest recevied weather packets stored in our database for station/object KD4WXI. If no packets are shown the sender has not sent any weather packets the latest 10 day(s).
| Time | Temp. | Humidity | Pressure | Rain* | Wind** | Luminosity | Snow |
|---|---|---|---|---|---|---|---|
| 1777928940 | 24.44° C | 34% | 1013.9 hPa | 0 mm | - | 42 W/m² | - |
| 1777928637 | 23.89° C | 35% | 1013.9 hPa | 0 mm | - | 43 W/m² | - |
| 1777928334 | 23.89° C | 35% | 1013.7 hPa | 0 mm | - | 45 W/m² | - |
| 1777928032 | 23.89° C | 35% | 1013.9 hPa | 0 mm | - | 44 W/m² | - |
| 1777927730 | 23.89° C | 36% | 1014.1 hPa | 0 mm | - | 46 W/m² | - |
| 1777927428 | 24.44° C | 34% | 1014.2 hPa | 0 mm | - | 46 W/m² | - |
| 1777927128 | 24.44° C | 35% | 1014 hPa | 0 mm | - | 48 W/m² | - |
| 1777926824 | 24.44° C | 34% | 1014.3 hPa | 0 mm | - | 50 W/m² | - |
| 1777926520 | 25° C | 34% | 1014.5 hPa | 0 mm | - | 51 W/m² | - |
| 1777926217 | 25° C | 33% | 1014.5 hPa | 0 mm | - | 53 W/m² | - |
| 1777925913 | 25.56° C | 34% | 1014.6 hPa | 0 mm | - | 189 W/m² | - |
| 1777925611 | 26.11° C | 34% | 1014.7 hPa | 0 mm | - | 532 W/m² | - |
| 1777925308 | 26.11° C | 33% | 1014.5 hPa | 0 mm | - | 548 W/m² | - |
| 1777925005 | 25.56° C | 32% | 1014.7 hPa | 0 mm | - | 558 W/m² | - |
| 1777924701 | 25.56° C | 34% | 1014.8 hPa | 0 mm | - | 572 W/m² | - |
| 1777924397 | 25.56° C | 33% | 1015 hPa | 0 mm | - | 584 W/m² | - |
| 1777924094 | 26.11° C | 33% | 1014.9 hPa | 0 mm | - | 583 W/m² | - |
| 1777923790 | 26.11° C | 33% | 1014.9 hPa | 0 mm | - | 605 W/m² | - |
| 1777923486 | 26.11° C | 33% | 1015.1 hPa | 0 mm | - | 615 W/m² | - |
| 1777923184 | 25.56° C | 34% | 1015.2 hPa | 0 mm | - | 629 W/m² | - |
| 1777922882 | 26.67° C | 35% | 1015.1 hPa | 0 mm | - | 628 W/m² | - |
| 1777922580 | 26.11° C | 32% | 1015.2 hPa | 0 mm | - | 646 W/m² | - |
| 1777922278 | 26.11° C | 31% | 1015.3 hPa | 0 mm | - | 654 W/m² | - |
| 1777921975 | 25.56° C | 35% | 1015.4 hPa | 0 mm | - | 662 W/m² | - |
| 1777921670 | 26.11° C | 34% | 1015.5 hPa | 0 mm | - | 667 W/m² | - |
* Rain latest hour (hover to see other rain measurements)
** Current wind speed in m/s (hover to see current wind gust speed)